Theta_e
336 326 328 327 326 325 319 319 305 307 308 299 300 303 298 307 306 306 304 307 304 307 309 310 310 309 306 305 306 307 308 305 306 302 302 317 330 334 344 341 338 343 345 347 348 351 354 352 353 353 353 353 353 353 352 352 352 352 352 351 350 350 349 349 349 348 348 348 348 348 347 348 348 348 348 348 348 348 348 348 348 348 347 347 347 347 346 345 345 341 338 337 335 335 335 336 337
327 327 328 327 326 323 315 316 306 301 304 299 300 302 301 304 306 304 303 304 305 306 309 310 310 310 309 309 309 309 307 309 310 310 315 322 330 332 335 341 339 342 344 347 349 348 351 354 351 353 353 353 353 353 352 352 352 352 351 351 350 350 349 349 349 348 347 347 348 347 347 347 347 348 347 347 347 347 348 348 348 347 348 347 347 346 346 345 343 339 338 337 335 333 333 334 335
325 326 323 327 322 321 317 313 302 301 299 295 299 301 304 303 303 304 305 306 308 309 310 309 310 309 309 309 307 307 303 312 312 314 316 324 321 328 336 336 340 343 345 347 348 349 351 351 348 353 354 354 353 352 352 352 352 351 351 350 350 350 349 349 348 348 347 347 347 347 347 347 347 347 347 347 346 346 346 347 348 346 347 346 346 346 345 345 342 340 339 338 336 333 332 332 334
329 330 321 322 316 317 310 307 305 301 299 298 297 302 304 303 303 305 307 308 309 309 309 308 307 310 308 305 306 310 308 309 313 314 315 321 327 332 336 338 338 339 347 348 349 348 349 350 348 353 352 353 352 352 352 351 351 351 351 350 350 349 349 349 349 347 347 347 347 346 347 347 347 346 346 347 346 346 346 347 347 346 346 345 346 346 345 344 343 340 340 338 336 333 332 332 333
329 329 324 322 318 310 311 307 302 302 297 300 297 302 303 304 304 305 306 309 309 309 309 307 307 309 310 309 310 306 305 312 314 319 320 334 335 335 340 339 341 340 344 347 347 348 352 347 349 350 353 352 353 351 351 351 351 350 350 350 350 349 349 348 348 348 346 346 346 347 347 347 347 347 346 346 346 345 345 346 347 346 346 345 344 345 344 344 342 341 340 337 335 333 331 331 332
326 325 328 321 314 314 309 301 300 300 301 303 299 301 304 304 304 305 306 309 309 309 308 308 306 305 307 307 310 308 312 308 313 325 329 330 334 339 340 343 341 338 342 347 347 346 354 343 349 350 351 352 352 351 352 350 350 350 350 350 349 349 349 348 348 347 346 345 345 347 346 346 346 346 347 346 345 346 346 346 346 346 345 344 343 343 344 343 342 341 339 336 334 332 330 330 332
321 320 319 318 315 316 306 302 300 300 301 305 302 302 304 304 305 306 305 305 307 307 308 306 308 306 304 308 310 315 318 318 317 326 332 334 337 339 341 340 341 340 342 345 346 348 354 343 349 352 352 351 350 351 352 351 350 350 350 349 349 347 349 348 347 347 346 345 345 346 346 346 346 346 346 346 346 346 346 346 346 345 344 343 343 343 343 343 341 341 338 335 334 331 329 329 330
325 320 316 311 308 308 303 302 302 302 300 305 305 304 305 305 306 306 305 306 303 304 306 307 308 306 304 311 305 314 318 325 328 329 332 334 336 338 340 340 339 338 342 346 347 351 345 342 347 349 351 352 350 351 351 349 349 349 349 349 349 348 348 347 347 347 346 345 345 346 346 345 345 346 345 345 345 345 346 346 345 344 343 343 343 343 343 342 342 341 337 335 332 329 328 328 329
322 317 319 314 304 307 302 301 301 304 302 305 304 306 308 306 306 305 304 305 304 306 306 306 308 304 304 307 307 313 312 320 326 329 333 335 336 337 337 338 340 341 343 344 346 349 353 339 344 347 348 351 351 351 349 349 350 348 349 349 349 348 348 347 346 347 346 346 345 345 346 345 347 346 345 345 345 345 345 344 345 344 343 343 342 341 341 342 342 339 337 334 331 328 327 327 329
317 315 307 309 309 300 301 301 299 301 302 306 305 305 305 306 305 306 305 304 304 305 306 308 308 304 306 304 307 310 311 319 323 328 332 335 336 337 337 338 339 341 341 343 345 344 350 342 337 340 344 349 351 350 349 349 349 348 347 348 349 348 348 347 346 346 346 346 346 346 346 345 346 346 344 344 343 343 344 343 344 343 343 342 341 340 340 340 340 338 336 334 331 328 327 327 327
311 313 316 306 301 301 299 299 302 302 303 305 305 306 306 306 306 305 305 305 306 305 306 307 306 304 306 306 308 313 314 316 320 323 330 334 335 337 337 338 339 339 340 343 344 343 347 350 337 336 340 343 347 350 350 349 349 348 349 348 348 348 348 347 346 346 346 346 345 346 345 346 345 345 345 344 342 341 343 343 343 343 342 340 340 340 340 340 339 336 335 333 330 328 326 326 326
307 307 311 303 301 300 300 301 301 303 304 304 303 306 307 306 306 304 305 304 305 305 305 307 304 307 304 305 308 310 311 311 316 323 329 333 332 334 336 337 338 338 339 340 340 340 342 348 348 341 335 335 341 345 346 347 348 348 348 348 348 347 347 347 347 346 346 346 345 346 344 345 345 344 345 344 343 342 341 341 342 342 341 341 339 338 340 339 336 335 333 331 329 328 327 326 325
311 309 304 302 301 302 303 301 301 302 302 303 304 304 306 305 305 305 305 305 305 305 305 308 308 308 303 305 310 311 309 309 313 320 328 331 332 333 334 335 336 337 338 340 340 339 341 343 344 347 344 331 334 336 341 342 344 347 348 348 348 347 348 348 347 348 348 347 347 347 346 345 345 346 345 342 342 341 341 341 340 341 340 339 339 340 339 337 336 334 332 330 329 328 327 325 325
314 311 308 302 304 302 300 301 303 300 300 304 305 305 306 305 306 306 306 305 305 304 307 309 308 307 304 307 307 308 308 310 311 316 325 329 328 330 333 333 335 335 337 339 338 339 340 342 343 345 350 348 348 341 334 338 341 345 345 345 345 346 347 348 348 348 347 347 346 344 342 343 345 344 344 343 342 341 341 339 341 339 339 339 338 338 337 336 334 333 331 330 329 327 326 325 324
310 311 306 305 301 301 303 300 300 299 301 304 304 305 305 306 306 306 306 304 304 308 308 310 308 305 302 303 306 306 307 309 311 315 320 326 324 324 328 328 327 328 329 331 334 335 335 339 341 343 345 345 346 346 347 348 335 340 342 341 340 344 345 345 345 343 342 344 342 339 338 337 336 336 338 340 340 338 336 334 340 341 338 338 338 337 336 336 334 333 331 330 328 327 326 323 322
315 310 306 301 299 298 301 302 303 301 301 305 304 305 305 306 307 306 306 306 306 310 309 305 309 304 306 306 304 306 307 309 312 315 317 321 324 322 320 321 322 322 323 322 322 324 329 334 337 340 342 343 345 345 346 347 336 333 336 337 338 339 341 342 341 338 336 335 334 333 330 333 329 335 326 336 332 337 335 335 335 338 338 338 338 337 336 335 335 333 332 330 327 325 323 320 318
314 313 300 301 298 298 301 300 302 298 304 305 306 305 303 303 307 307 308 308 305 306 306 306 305 308 304 304 305 307 308 311 313 314 316 316 317 316 317 318 318 318 320 320 320 320 323 325 330 334 339 341 343 344 344 346 348 331 332 332 333 336 338 337 337 331 327 324 326 323 324 346 345 345 340 343 326 340 329 328 334 338 339 339 338 337 336 335 334 333 332 330 326 323 320 317 317
311 305 302 298 301 298 303 302 303 306 303 304 305 305 304 303 306 306 308 306 306 307 305 306 307 306 306 306 307 308 309 310 311 312 312 313 314 313 314 315 315 315 318 319 320 319 320 322 323 328 335 339 342 344 344 345 348 341 347 347 346 340 333 330 337 346 338 346 328 336 343 342 341 342 343 339 343 341 334 325 330 335 338 337 337 337 336 335 335 334 332 329 326 324 320 322 318
309 303 301 300 301 303 306 306 306 305 304 305 305 305 305 305 305 307 304 304 305 305 304 306 305 306 307 307 307 307 308 309 310 310 311 311 311 310 312 314 314 315 316 317 319 319 320 321 322 321 328 334 339 342 343 344 344 345 346 345 346 337 341 343 345 345 345 345 344 344 340 342 342 341 343 340 340 330 338 323 328 332 334 334 336 337 336 336 335 334 332 328 325 324 329 326 320
308 305 301 301 305 304 306 306 305 306 306 304 304 305 304 306 306 308 303 304 305 304 303 303 305 304 305 305 306 307 308 308 309 310 310 310 311 311 310 311 312 313 315 315 317 319 319 320 322 322 323 333 335 340 342 341 341 343 344 344 344 344 346 345 345 344 345 345 344 343 341 342 342 341 328 327 334 341 336 321 323 327 329 329 330 334 333 335 335 334 330 327 325 327 328 325 323
309 306 302 302 303 302 304 305 306 305 306 305 304 305 303 306 306 305 304 302 303 304 304 304 304 303 304 304 305 306 306 307 308 309 309 310 311 311 310 311 311 313 314 317 317 317 320 320 321 323 322 329 336 338 340 341 341 342 342 343 343 342 345 344 343 343 343 345 346 343 343 343 343 342 342 342 341 339 340 340 338 338 336 336 327 336 335 337 333 333 330 326 330 329 328 326 325
308 304 304 304 303 304 305 306 306 305 305 304 304 302 303 307 305 304 304 301 302 303 302 304 303 303 303 303 304 305 305 306 306 307 307 308 309 309 310 311 312 313 315 315 315 317 319 319 320 321 322 325 334 337 338 340 341 341 341 341 342 341 342 343 342 343 342 342 342 341 341 343 341 341 341 341 338 339 338 337 338 338 337 337 333 335 336 336 334 335 332 331 330 329 327 326 323
303 304 305 305 306 304 306 306 305 304 304 303 303 305 306 304 303 306 305 303 303 303 303 303 303 303 303 304 304 304 305 305 305 306 307 307 307 308 309 309 309 311 313 313 316 317 319 318 321 322 321 324 333 336 338 339 339 340 340 343 340 338 340 339 341 342 341 341 341 341 341 340 340 339 339 341 338 338 337 336 335 336 336 336 336 337 336 334 335 333 331 331 330 328 326 324 322
305 302 304 304 305 304 305 305 304 304 303 303 305 305 302 303 300 304 303 302 302 302 302 302 302 303 303 303 303 303 303 304 304 306 307 307 307 308 309 309 310 312 312 314 315 316 317 317 321 321 321 325 332 334 335 337 339 339 340 339 339 337 337 338 338 338 341 341 338 338 336 340 339 337 338 340 338 339 337 337 336 335 335 336 335 335 333 333 333 333 332 331 329 328 325 324 322
304 303 304 304 303 305 305 305 304 304 304 305 304 301 302 304 303 302 302 301 301 301 302 302 302 302 303 302 302 303 303 304 304 305 307 308 308 309 310 309 310 310 310 312 313 314 315 316 323 322 322 327 330 332 334 335 337 338 336 335 333 329 333 332 331 331 331 332 334 334 335 337 338 338 337 338 340 339 338 335 334 334 333 334 334 333 332 332 332 330 329 329 328 328 326 325 324
304 303 303 304 304 305 305 304 304 304 304 304 301 301 304 304 303 301 302 301 301 301 301 301 302 301 301 301 302 302 302 302 304 304 305 307 307 307 308 307 309 308 309 310 310 311 313 319 324 325 326 329 332 331 333 333 333 330 330 327 327 328 329 329 329 329 328 328 328 330 332 334 335 336 335 332 331 333 335 333 332 332 330 330 331 329 326 328 328 329 329 327 326 327 326 324 324
304 303 304 303 305 304 305 303 305 304 304 303 301 302 303 302 301 299 300 302 301 301 300 301 301 300 301 301 302 302 302 302 302 304 305 306 306 305 306 307 306 307 309 308 308 310 314 320 322 324 325 326 327 326 326 325 326 324 323 322 323 324 324 325 325 324 324 324 325 327 328 329 331 331 331 330 329 328 326 325 325 326 326 326 327 326 324 324 324 322 321 320 320 321 323 323 322
304 303 304 304 305 305 305 304 304 304 302 303 302 302 302 301 299 300 300 301 302 300 300 300 301 301 300 300 301 302 302 302 303 304 302 303 303 303 304 303 303 306 306 306 307 310 315 319 320 320 321 322 321 320 319 319 319 321 320 318 317 318 319 319 320 320 319 319 322 323 324 324 325 327 328 327 327 324 323 323 322 322 322 322 323 324 323 322 321 320 318 319 319 320 321 322 322
303 303 300 304 305 303 305 303 303 302 302 301 303 301 298 298 299 300 301 301 301 301 300 300 300 300 300 300 300 301 301 302 303 302 301 302 303 303 302 302 302 303 305 306 307 311 314 317 317 316 316 316 316 315 315 315 315 316 316 315 314 315 314 315 315 316 316 317 319 321 321 321 322 323 324 325 324 323 322 321 320 320 321 321 321 321 321 320 320 319 319 318 318 319 319 319 321
304 303 301 301 302 302 303 303 302 300 301 301 302 294 300 299 300 299 300 300 300 300 300 300 300 299 299 300 300 301 301 301 301 301 301 301 302 301 301 302 302 302 303 306 308 309 313 315 315 314 313 311 311 311 311 309 309 310 311 311 310 309 309 311 311 311 312 314 315 315 318 319 321 321 321 320 321 320 319 319 319 319 320 321 322 322 320 320 320 319 319 318 315 317 316 316 317
300 303 302 299 298 299 302 303 302 300 300 301 301 295 299 299 298 300 300 301 300 300 300 300 300 299 299 300 300 300 300 300 300 300 300 301 300 301 301 302 302 302 303 305 306 308 311 311 311 309 309 309 308 307 307 306 306 306 306 307 307 307 307 307 307 307 308 309 310 310 311 313 314 317 319 319 319 318 317 316 316 317 318 319 320 321 322 321 319 318 319 319 317 317 317 316 316
302 298 297 301 298 300 301 303 302 300 299 302 300 296 299 299 299 300 300 300 300 300 301 300 300 299 299 299 299 300 300 300 300 300 300 301 300 299 301 301 302 301 302 303 305 308 309 309 308 307 307 306 306 305 305 305 304 304 304 304 305 306 305 305 304 305 305 306 306 306 307 309 311 311 313 315 314 314 313 313 313 314 314 315 315 315 316 317 315 314 313 316 317 314 313 312 313
301 298 298 298 300 300 300 300 302 302 301 301 300 297 301 298 300 299 300 300 299 299 301 300 299 298 299 298 299 300 300 300 300 300 299 300 301 300 301 300 300 300 302 303 303 306 307 308 307 306 304 304 303 304 304 304 303 302 301 301 302 303 303 302 302 303 303 303 304 304 304 305 308 308 308 310 311 311 310 309 309 310 311 310 310 310 310 312 313 311 310 311 312 310 309 309 310
299 301 298 300 298 300 298 299 302 302 301 298 300 298 299 300 299 299 299 300 299 299 300 300 299 299 299 299 298 299 300 300 299 298 298 299 300 299 300 300 300 301 302 303 304 305 305 306 306 305 304 304 304 303 302 302 301 301 300 299 300 299 300 300 300 301 301 301 302 302 303 303 305 306 307 308 308 308 308 308 308 308 308 308 309 309 308 309 310 310 307 307 307 307 306 306 306
298 299 298 298 300 299 298 298 299 301 300 299 300 299 300 301 300 299 300 300 300 300 300 300 299 299 298 298 298 298 299 299 297 298 298 299 299 299 299 300 301 300 301 303 304 305 306 306 306 304 304 304 304 303 302 302 301 300 300 300 299 299 298 299 299 299 299 299 300 301 302 302 303 305 306 306 307 307 306 306 306 307 307 307 306 306 307 308 309 309 309 309 308 306 305 305 305
299 299 298 299 297 298 298 301 300 301 299 299 300 298 300 303 300 300 299 299 299 300 300 299 299 298 298 298 298 298 298 297 297 298 298 299 299 299 299 299 300 300 301 303 304 305 305 305 305 305 305 304 304 304 303 302 301 300 299 299 298 297 297 297 297 297 298 297 298 299 299 300 300 301 303 304 304 305 305 304 304 305 305 305 304 303 303 304 305 308 307 307 307 305 304 304 304
300 300 299 297 298 299 301 300 300 301 298 299 300 301 301 302 303 300 299 299 299 299 298 298 298 298 297 298 297 298 298 297 298 298 298 298 299 299 299 299 300 300 301 302 303 302 303 304 305 303 305 306 306 305 303 301 299 297 297 296 295 296 296 296 296 296 296 296 297 297 297 297 298 298 299 300 301 301 301 302 302 302 302 302 301 301 302 302 303 304 306 305 303 301 301 302 302
299 298 298 297 299 297 301 300 299 300 298 299 302 300 300 301 303 302 299 298 298 298 298 298 298 298 298 297 297 297 297 297 297 297 297 298 298 299 299 299 299 299 299 301 301 302 303 303 303 303 303 303 303 302 301 300 300 299 297 296 296 296 296 295 294 294 295 295 296 296 296 296 296 296 296 298 297 297 297 297 298 298 298 298 298 298 298 299 299 300 303 303 303 301 298 300 300
300 298 298 297 298 301 302 299 299 299 297 297 300 298 299 301 303 301 299 298 300 301 300 300 298 297 297 297 297 297 296 297 296 296 297 297 298 298 298 298 298 298 299 299 300 301 302 302 302 302 302 302 301 301 300 298 298 298 297 295 295 293 294 294 294 294 294 294 294 294 295 295 295 295 295 296 296 296 295 295 295 295 295 295 294 294 295 295 296 296 298 299 299 299 298 299 297
298 298 296 294 300 298 295 297 298 297 297 297 298 296 298 301 303 301 301 300 301 300 299 299 299 297 297 297 297 296 296 296 295 296 296 297 298 298 298 297 297 298 298 298 299 300 300 301 301 300 299 299 298 297 297 297 296 296 296 296 295 294 292 293 293 293 293 293 292 293 294 294 294 294 294 294 295 295 295 294 294 295 294 295 294 292 293 293 294 294 294 295 296 292 293 295 296
299 299 298 297 298 299 297 298 297 298 298 298 297 295 296 299 299 299 299 299 296 295 295 295 296 298 298 298 297 297 296 296 296 295 296 296 296 297 297 297 297 297 297 297 298 298 299 300 300 299 298 297 296 296 296 296 295 295 294 294 294 293 293 292 292 291 291 291 292 292 292 293 293 293 293 294 293 294 294 294 294 293 293 294 294 292 292 292 293 293 294 293 293 292 290 292 294
298 300 299 299 300 298 299 300 296 296 296 297 296 290 293 301 302 302 295 294 294 295 294 294 295 295 295 294 295 296 297 297 296 295 296 297 296 296 296 297 297 296 296 296 297 298 299 299 298 298 298 297 296 296 296 296 295 294 294 293 292 291 290 290 289 289 289 290 290 291 292 292 292 292 292 293 293 293 293 293 293 292 292 291 292 292 292 291 292 292 293 292 292 293 291 290 290
296 298 302 300 299 299 299 298 296 291 290 296 297 291 289 299 298 299 294 294 294 294 293 295 295 295 294 294 295 295 294 295 296 296 295 295 296 296 296 296 296 295 295 296 296 297 298 298 298 297 297 296 297 297 297 297 297 296 295 294 293 291 289 290 291 291 290 290 291 290 290 291 292 291 292 292 292 292 292 292 292 291 291 291 291 290 290 290 291 291 292 292 291 291 292 289 289
295 299 301 301 300 298 298 298 296 294 300 297 295 295 290 290 297 300 298 295 295 293 293 294 295 295 294 295 295 295 295 294 294 294 295 296 296 296 295 295 295 294 294 294 295 296 296 296 296 296 295 295 296 296 297 297 296 295 294 293 292 291 290 289 290 290 291 291 290 289 290 290 291 291 291 291 291 291 291 291 291 291 290 289 289 289 289 290 291 291 291 291 291 290 290 288 288
298 298 301 300 299 299 299 297 295 296 294 290 293 296 289 289 296 299 297 295 295 294 294 294 295 295 295 295 295 295 295 295 295 294 294 294 294 294 294 293 293 293 294 294 294 294 295 295 295 294 294 294 295 296 296 296 295 294 293 292 291 291 291 291 291 291 290 291 290 290 289 289 289 290 290 291 291 291 290 290 290 289 289 289 289 290 289 290 289 289 289 289 289 289 289 289 288
299 300 300 299 299 298 299 296 295 294 291 286 292 295 288 289 297 297 297 296 297 299 298 295 295 295 294 294 295 295 295 295 295 295 294 294 294 293 293 293 292 292 292 293 293 294 294 294 293 293 293 294 294 295 295 295 294 294 293 292 291 290 291 291 291 290 290 290 289 289 289 289 289 289 289 290 290 290 290 290 290 289 289 289 289 289 289 289 289 289 289 289 289 289 289 289 288
300 301 299 297 297 296 296 296 294 291 285 287 293 295 292 286 295 297 296 296 299 301 300 297 296 296 295 295 295 294 294 294 294 294 293 293 293 292 291 291 291 291 292 292 293 293 293 293 293 292 292 293 294 294 294 294 294 294 293 293 292 291 291 291 290 289 289 289 289 289 289 289 289 288 289 289 290 290 290 290 289 289 289 289 288 288 288 288 288 288 289 289 288 288 288 288 288
301 297 296 296 292 294 292 291 292 286 284 291 294 295 295 285 291 298 302 300 301 301 297 295 295 295 294 295 294 294 294 293 293 293 292 291 291 290 291 290 290 290 291 291 292 293 293 292 292 291 292 293 293 294 294 294 294 294 294 293 292 292 292 291 290 289 289 289 289 288 288 288 288 288 288 288 288 289 289 288 289 288 288 288 287 288 288 288 288 288 288 288 287 288 288 287 287
298 297 295 290 289 287 285 287 283 284 285 287 289 294 291 290 295 300 301 299 299 300 300 297 296 295 295 295 294 294 294 293 292 292 291 291 290 289 290 289 289 289 290 291 291 292 292 292 291 291 291 292 292 293 293 293 293 293 293 293 292 292 292 291 290 290 290 289 289 288 288 287 287 287 287 286 287 287 287 287 287 287 286 287 287 287 287 287 288 287 287 287 287 286 286 287 286
295 294 292 289 286 285 282 285 287 287 288 288 289 292 288 294 295 300 300 298 298 297 298 300 298 296 295 294 294 293 293 293 292 292 291 291 290 290 290 289 289 289 290 290 291 291 291 291 291 291 291 292 292 292 292 292 292 292 292 292 291 291 291 291 290 289 289 289 289 288 287 287 286 286 286 286 287 287 287 287 287 286 286 286 286 286 286 286 287 286 286 286 286 286 286 286 286
294 299 296 291 291 287 283 285 283 284 287 285 290 286 286 286 292 294 294 293 295 294 295 298 298 297 296 295 294 293 293 292 292 292 291 291 291 290 290 289 289 290 289 290 290 291 291 291 291 290 290 291 291 291 291 291 291 291 291 291 291 290 290 289 289 289 288 288 288 287 287 287 286 286 285 286 286 286 286 285 285 285 285 285 285 285 286 286 286 286 286 285 285 285 285 285 285
296 298 300 293 290 297 288 288 286 285 285 283 284 286 292 293 295 296 293 293 292 294 293 295 296 295 295 293 292 292 292 292 292 292 291 291 291 290 290 289 290 289 289 290 290 291 291 291 291 290 290 290 291 291 291 290 290 291 291 290 290 290 289 289 289 289 288 288 287 287 286 286 286 285 286 286 286 286 286 286 286 285 285 285 285 285 284 285 285 284 284 284 283 285 283 284 284
294 295 290 293 299 296 290 285 286 284 285 284 288 287 291 297 296 293 292 291 291 292 292 294 295 295 294 293 292 292 292 292 291 291 291 290 290 290 290 289 289 289 289 289 290 291 291 290 290 290 290 290 290 290 290 290 290 290 290 289 289 289 289 288 287 287 287 287 287 286 286 286 286 286 285 286 285 285 285 285 285 285 284 285 284 284 283 283 283 284 283 283 283 283 283 283 283
295 289 294 298 300 298 291 286 287 285 283 285 288 286 289 289 287 292 291 290 291 292 291 293 294 294 293 293 293 292 292 292 292 292 292 291 290 290 290 290 289 289 289 289 289 291 291 291 290 289 289 289 289 290 289 289 289 289 289 289 289 288 288 287 287 286 286 286 286 286 286 285 285 285 285 285 285 285 284 284 284 284 283 283 283 283 283 283 283 283 283 283 283 282 282 283 283
296 294 302 292 287 286 291 288 281 282 282 284 288 289 289 291 292 290 292 292 292 291 292 291 292 292 292 293 293 293 293 292 291 291 291 290 290 290 289 289 289 289 289 289 290 290 290 290 290 290 289 289 289 289 289 289 289 289 289 288 288 287 287 287 287 287 287 286 285 285 285 284 285 285 284 284 284 284 283 283 283 282 283 282 282 282 282 282 282 282 282 282 282 281 281 281 282
296 297 295 300 294 291 288 288 288 288 284 284 285 287 285 293 295 295 295 295 295 293 291 291 291 292 293 293 293 293 292 292 292 291 291 291 290 289 289 289 288 288 288 289 289 289 289 290 289 289 289 289 289 288 288 288 289 289 288 288 287 287 287 287 287 286 286 285 285 285 284 284 284 284 283 284 283 282 282 282 282 281 281 281 281 281 281 281 281 281 280 281 280 280 279 280 280
289 290 291 293 290 293 292 293 289 287 285 285 285 284 287 294 299 299 298 298 297 294 292 292 292 292 294 294 294 293 293 292 292 292 292 291 290 289 289 289 288 288 288 288 288 288 289 289 289 289 288 288 288 288 288 288 288 287 287 286 286 286 286 286 286 286 285 285 284 284 284 284 283 283 283 282 282 282 281 281 281 281 280 280 280 280 280 280 280 279 279 279 279 279 278 278 279
293 292 290 292 289 287 285 284 293 289 286 284 285 283 290 298 298 300 300 300 299 297 295 293 293 293 294 295 295 295 293 293 293 292 292 291 290 289 289 288 288 288 287 287 287 288 288 288 289 288 288 288 287 287 288 287 287 287 286 286 286 286 285 285 285 284 284 284 283 283 283 283 282 282 282 281 281 281 280 280 280 279 280 279 279 279 279 278 278 278 277 279 279 277 277 277 278
Wind_Speed
8 5 5 5 5 5 5 3 3 3 4 5 5 3 6 2 2 3 4 4 3 7 6 3 4 3 7 5 7 8 9 10 9 6 6 3 4 6 5 6 4 4 10 10 12 12 11 7 12 12 13 14 13 13 12 11 12 12 12 12 11 11 10 10 9 8 8 9 9 9 9 9 8 8 9 8 8 9 9 8 9 10 11 11 11 11 11 12 12 12 13 13 12 12 11 11 10
7 6 6 5 4 3 3 2 3 3 2 4 5 3 6 4 5 6 6 8 6 5 4 3 2 3 4 5 2 4 11 10 9 8 8 6 9 9 5 5 5 5 8 8 10 12 11 10 9 11 14 14 13 13 13 12 12 11 11 11 10 11 11 10 9 9 8 8 8 8 8 8 8 8 7 8 8 8 9 9 8 9 9 9 10 10 10 11 12 12 13 13 13 12 11 11 10
6 5 5 5 5 5 2 2 3 3 4 4 5 6 3 3 5 4 8 7 6 5 3 1 1 3 3 4 5 5 8 9 7 6 7 6 3 9 8 3 5 1 6 7 8 11 10 10 6 10 13 13 14 14 14 13 12 11 11 10 10 10 9 9 9 9 8 8 8 8 7 7 7 7 7 7 7 7 8 8 9 9 9 9 9 9 10 12 12 12 12 13 12 12 11 11 10
6 4 5 3 2 2 4 4 4 2 2 5 5 4 2 4 6 6 6 6 5 2 2 1 1 3 7 4 7 3 8 7 9 9 5 7 7 8 7 4 1 0 4 5 7 9 8 11 8 9 11 13 14 14 13 13 13 12 11 10 10 9 8 7 8 7 7 8 7 8 7 7 6 6 6 7 7 7 7 8 9 9 9 9 9 10 10 12 12 12 12 12 12 11 11 11 10
5 4 3 4 4 3 3 2 2 3 3 1 5 6 4 3 6 4 6 4 4 3 4 3 2 4 4 5 5 4 7 2 11 11 6 6 9 7 5 3 2 2 5 6 6 7 9 13 9 8 11 12 12 12 13 12 13 13 11 11 11 9 9 8 6 7 7 7 7 6 7 6 6 6 6 6 7 7 7 8 8 9 8 8 9 10 10 12 11 11 11 11 11 12 11 11 11
6 4 2 4 3 3 3 4 4 3 6 5 6 6 4 6 5 4 5 4 5 2 4 3 6 1 4 6 7 5 10 3 7 8 8 7 10 7 5 2 3 3 6 6 6 5 10 11 7 6 10 10 12 12 11 11 11 10 11 11 9 10 9 9 7 7 7 6 7 6 5 5 5 5 5 6 6 7 7 7 7 7 7 7 8 8 9 10 10 10 10 11 11 12 11 11 11
3 3 3 3 2 2 4 1 3 4 5 6 8 7 5 5 5 1 6 6 3 3 2 4 3 2 5 5 10 8 9 7 3 6 7 6 6 6 7 4 2 5 6 6 5 6 11 10 7 5 7 8 9 10 11 12 11 12 11 11 10 8 9 9 8 7 6 6 6 7 5 4 6 4 4 5 6 6 6 7 7 6 6 9 10 10 8 7 9 10 10 11 11 11 11 11 11
3 3 2 5 3 4 1 3 4 2 5 5 5 7 5 5 2 0 4 4 4 1 4 3 2 4 8 2 3 7 11 10 7 6 7 6 6 6 7 7 5 5 5 4 5 9 8 9 7 5 5 9 9 9 11 9 9 9 9 10 10 10 9 8 8 7 5 6 5 6 5 4 6 4 4 4 5 6 6 7 7 7 7 8 10 11 11 10 11 10 11 11 12 11 11 11 10
3 5 1 4 3 1 2 2 5 4 7 3 5 6 4 4 2 2 5 5 6 3 3 4 4 7 6 5 7 7 8 8 6 9 9 8 7 7 5 8 8 5 4 3 3 6 7 6 6 4 3 7 8 7 8 9 9 9 10 10 9 9 8 7 7 6 6 4 4 4 3 3 6 5 4 4 5 6 5 6 7 8 7 8 10 10 10 10 11 11 11 12 11 11 10 10 10
3 3 3 3 2 4 3 4 4 4 5 4 4 5 4 3 2 2 1 5 5 1 5 3 5 5 3 7 8 6 6 8 7 9 10 9 7 5 6 7 7 6 3 3 2 2 6 7 6 5 4 3 6 7 8 8 8 9 7 9 8 8 8 7 6 7 6 3 4 3 4 2 4 6 4 1 3 4 6 6 6 7 7 9 9 10 10 11 11 12 12 12 11 11 10 11 10
3 2 2 4 5 2 4 5 4 5 5 6 4 4 3 2 1 1 3 5 2 2 4 1 2 4 3 6 7 6 9 11 12 11 9 7 6 6 5 7 7 7 5 3 3 1 6 6 6 4 5 5 3 5 5 7 8 9 9 8 8 7 7 6 7 6 5 5 3 2 2 2 3 4 6 4 4 1 5 6 6 7 7 9 10 10 11 11 11 11 11 11 11 11 11 11 10
3 3 3 4 3 3 3 4 5 5 5 5 6 5 3 2 2 4 3 2 4 3 4 4 3 3 4 4 6 7 11 15 11 8 8 6 6 6 6 5 6 6 5 4 2 1 1 5 6 5 2 4 5 2 4 5 7 8 7 8 8 5 5 7 7 6 5 4 6 3 1 1 2 5 5 4 3 3 3 4 6 7 7 8 9 10 11 11 11 11 11 11 11 11 11 11 10
4 1 4 5 1 2 5 3 5 6 5 7 7 5 1 2 2 3 3 0 1 2 5 6 3 4 2 4 7 8 12 12 11 8 6 5 5 5 5 6 6 6 5 3 3 2 2 2 3 6 6 4 3 4 2 4 5 5 5 5 7 7 6 6 6 6 6 6 6 7 6 6 4 4 4 4 5 3 4 5 2 7 7 8 11 12 12 11 10 10 10 10 10 10 11 11 10
4 2 3 3 1 1 3 2 6 6 6 7 5 6 2 2 3 3 3 3 3 4 5 4 3 5 5 1 7 5 8 11 10 8 5 4 4 5 6 5 5 5 5 5 5 3 1 1 2 3 7 7 8 6 4 3 4 5 4 3 3 6 5 5 5 6 6 5 5 6 5 5 5 6 6 5 5 4 5 5 4 5 7 9 10 12 12 11 10 10 8 8 9 9 10 10 10
2 1 3 1 3 4 2 4 6 7 4 8 5 4 5 1 2 1 4 5 6 4 3 2 4 6 4 5 5 6 9 11 10 7 4 2 3 5 5 5 6 6 6 5 4 4 6 4 2 3 4 4 7 7 7 7 6 5 7 5 3 5 5 5 7 7 6 7 6 5 6 6 7 7 7 7 7 7 5 4 5 6 5 8 10 11 12 11 10 9 8 7 8 8 9 9 9
3 3 3 3 4 5 5 4 4 6 5 6 6 4 4 4 1 2 4 4 2 3 3 3 4 4 6 5 5 7 9 10 9 6 2 2 1 3 4 4 5 5 5 6 5 5 3 3 4 3 3 4 5 6 6 7 8 7 7 7 6 3 3 3 7 7 7 7 7 7 7 6 6 5 9 7 8 8 7 5 9 5 4 8 9 10 11 11 10 9 7 7 8 7 7 8 8
2 3 4 3 4 6 6 5 6 5 8 7 6 4 4 6 3 1 1 1 4 4 5 6 5 4 7 5 5 5 7 7 7 3 2 1 1 2 2 3 2 4 3 5 6 5 4 4 3 4 4 4 5 5 5 6 7 9 7 7 8 7 6 3 4 7 6 6 6 6 6 4 6 5 7 5 8 7 8 5 8 7 6 9 10 9 10 11 10 9 8 7 7 6 7 7 8
2 3 4 4 2 5 6 5 4 5 5 6 5 2 2 3 6 4 2 4 5 2 6 7 8 9 7 5 4 5 5 7 7 5 5 3 2 2 2 4 3 4 4 3 5 6 5 4 4 2 3 4 4 4 3 4 4 6 7 7 7 7 6 6 6 6 6 5 4 5 5 5 5 5 4 8 6 8 7 8 8 8 8 9 8 10 10 10 10 10 8 7 6 5 6 4 5
3 2 3 1 2 4 2 4 5 3 5 4 4 2 2 2 3 4 5 5 3 4 7 7 8 7 7 6 6 6 6 7 7 7 7 7 5 5 4 3 4 5 5 4 4 6 6 5 5 3 2 3 4 4 3 3 5 4 5 6 5 7 7 8 7 7 7 6 6 5 5 4 4 4 2 3 3 5 8 8 5 8 6 8 8 8 8 8 7 9 8 7 5 4 3 3 4
1 4 4 3 4 5 5 2 5 6 3 3 2 2 2 2 1 3 5 4 2 5 6 8 6 5 5 5 6 6 6 7 8 8 8 8 7 6 5 5 5 5 5 4 5 4 6 5 5 4 3 1 3 4 3 3 3 4 4 4 5 5 6 6 7 6 5 5 5 5 4 3 4 2 8 9 7 5 6 7 4 4 9 8 8 6 5 6 5 7 7 5 6 1 3 3 4
2 4 4 5 4 4 4 3 4 4 2 1 0 1 4 2 0 3 3 6 9 6 8 6 5 5 5 5 6 5 6 7 7 8 8 8 8 6 6 5 5 5 5 4 4 5 6 6 6 4 3 3 4 3 3 4 2 3 3 3 4 4 3 4 4 4 5 4 4 5 4 3 3 4 4 4 5 4 5 6 5 4 6 6 8 5 5 4 5 4 4 6 3 3 3 4 4
4 4 4 4 2 1 5 3 4 3 2 2 0 4 3 3 4 5 5 6 3 5 5 6 6 5 4 4 4 4 5 6 8 8 8 8 9 8 7 5 6 5 5 5 6 6 7 7 6 5 5 3 5 4 4 2 2 3 2 2 2 2 3 2 2 1 3 3 3 3 3 3 3 4 2 2 3 2 2 2 4 4 4 4 6 4 4 3 3 2 1 1 3 4 3 4 4
2 4 2 1 3 2 4 3 4 1 2 3 4 2 1 5 5 4 5 4 5 4 4 5 5 4 3 3 3 4 5 7 8 8 8 8 8 9 8 6 6 6 6 7 6 6 7 8 8 4 4 3 5 4 4 3 3 1 2 2 1 1 4 2 3 3 2 3 2 3 3 4 3 3 2 3 4 3 2 2 2 1 1 2 4 1 2 2 2 1 1 1 3 3 3 2 3
6 2 2 3 1 1 2 2 3 2 3 4 3 2 6 5 9 3 4 7 6 5 4 4 4 3 2 3 4 5 5 6 6 7 6 6 7 8 7 7 7 6 6 8 7 7 7 8 8 4 1 3 4 4 3 4 3 1 2 3 1 5 4 5 7 6 7 5 7 5 5 3 3 4 3 2 4 2 2 1 2 1 0 1 2 2 2 3 2 2 3 3 2 2 3 2 2
4 2 2 3 1 3 1 2 4 5 6 5 2 6 8 7 5 2 4 5 5 5 4 4 3 3 3 4 5 4 5 4 4 4 4 5 6 6 8 6 7 7 8 8 7 7 8 8 7 4 1 5 4 5 5 4 3 4 7 8 9 9 8 7 6 7 7 6 7 7 6 4 1 3 3 2 1 3 4 4 3 3 2 2 1 1 2 3 3 5 6 6 4 3 2 2 1
1 3 1 2 4 3 3 5 7 7 4 4 5 9 8 2 3 7 5 5 6 5 4 3 4 3 3 4 4 4 5 5 4 5 5 4 5 7 8 8 7 8 8 7 7 7 7 9 6 7 2 2 4 3 5 7 8 9 8 8 7 8 8 7 8 8 8 7 7 8 8 6 6 4 6 7 7 5 5 6 7 6 5 5 5 6 5 4 3 3 5 5 5 3 3 4 4
2 1 3 5 5 4 5 7 5 4 6 6 8 7 5 3 4 4 4 7 6 5 4 4 2 3 4 3 4 4 5 6 6 5 5 4 5 7 7 7 8 8 7 8 8 7 7 8 8 8 9 11 10 9 8 8 8 9 8 7 7 8 7 7 8 8 7 8 8 9 9 8 6 7 6 7 6 6 6 5 6 5 6 5 4 4 4 3 3 4 3 3 4 5 4 4 4
1 4 6 9 9 7 6 6 7 3 6 8 8 7 3 4 4 2 8 8 7 5 5 4 3 2 3 4 4 3 3 4 4 4 6 6 5 6 7 6 8 7 7 8 7 7 7 8 8 8 8 8 9 9 8 8 8 8 9 7 7 7 7 7 7 7 8 8 9 9 9 9 8 7 7 7 7 7 7 7 6 6 5 5 4 3 3 3 3 4 4 4 3 2 3 2 3
2 5 6 3 5 9 9 7 5 5 3 4 4 6 8 9 8 8 9 8 7 5 5 4 3 3 2 2 2 2 3 3 3 3 4 4 5 5 6 6 7 6 5 6 7 7 8 7 7 7 7 9 10 10 9 8 7 8 8 8 6 6 7 7 8 8 7 7 7 8 9 9 7 7 7 8 7 7 7 7 6 6 6 5 4 5 5 4 4 3 3 3 3 2 4 4 3
4 6 6 8 9 10 9 4 3 5 2 4 4 6 9 13 7 8 8 8 7 6 6 5 4 3 3 3 2 3 2 2 4 4 4 4 4 5 6 6 6 5 5 5 7 8 7 4 4 5 8 10 9 9 8 8 8 8 7 7 8 8 7 8 9 8 8 7 8 10 9 9 7 7 7 8 7 7 7 7 7 6 5 5 5 5 4 3 4 3 3 4 3 3 2 1 0
6 0 3 7 6 3 8 6 6 5 4 5 4 7 2 9 7 7 7 9 9 7 7 6 5 4 4 3 3 3 3 3 3 4 5 5 4 4 5 5 6 6 5 6 7 7 7 6 5 6 7 9 9 10 11 10 9 8 8 8 9 9 8 8 8 8 8 8 8 9 10 9 10 9 9 7 7 6 7 6 7 6 6 6 5 5 3 3 4 4 3 3 3 2 2 1 1
5 5 6 6 6 3 7 6 5 4 4 6 7 6 8 7 7 7 7 8 8 7 6 6 5 4 4 4 4 3 3 4 3 4 5 5 5 4 5 5 6 6 6 6 5 6 8 8 8 9 10 11 10 9 9 9 9 8 8 9 9 9 8 9 8 8 8 8 8 8 10 9 10 10 10 8 8 8 7 8 7 7 7 5 5 6 6 6 6 6 7 6 4 4 4 4 3
6 7 8 7 5 4 6 5 3 1 6 7 10 7 2 6 8 7 6 8 9 7 6 6 6 5 4 4 3 3 4 4 3 4 5 4 4 4 4 5 5 5 5 5 5 5 7 7 7 9 9 10 11 11 11 11 10 11 11 10 9 9 9 8 7 7 7 8 8 8 9 8 10 10 10 9 8 8 8 8 7 8 7 7 7 6 6 5 5 5 6 6 5 4 4 4 3
7 6 7 7 7 4 5 6 3 4 6 6 9 9 10 4 10 9 6 8 10 9 8 7 6 4 4 3 3 4 3 3 3 3 4 4 4 4 4 4 4 4 3 4 4 5 6 6 7 8 8 8 8 9 9 9 10 10 9 9 9 10 10 9 8 8 8 8 8 8 9 8 9 9 9 8 8 8 8 7 7 7 6 6 6 6 6 6 6 5 6 6 6 6 5 6 6
6 4 5 6 8 10 10 5 6 5 7 6 7 11 13 6 10 11 9 8 9 9 8 7 6 6 5 4 4 4 3 3 3 3 3 3 3 3 4 4 3 3 3 4 5 5 5 7 7 8 8 8 10 10 11 10 10 10 9 9 10 10 10 9 8 9 8 9 9 9 10 9 9 9 9 8 7 7 7 8 8 8 7 7 7 6 6 6 5 5 5 4 4 6 6 6 7
8 8 7 7 7 5 6 4 6 2 6 7 10 11 10 11 11 10 9 9 9 9 6 5 6 5 5 5 4 4 4 4 3 3 2 2 3 3 3 3 3 3 3 4 5 5 6 7 6 6 7 7 7 7 7 7 7 7 8 8 10 10 9 9 9 9 9 9 10 10 10 10 10 10 10 9 9 8 8 8 9 9 8 8 8 8 8 8 8 6 7 8 7 7 8 8 8
3 4 8 10 10 11 4 4 4 3 3 11 12 13 15 14 11 12 11 9 9 9 9 8 7 7 6 5 5 5 5 4 4 3 2 2 2 3 3 2 3 3 4 5 5 5 5 5 5 6 4 4 5 6 6 6 7 7 8 9 9 8 8 9 9 9 9 9 10 10 11 10 10 10 10 10 10 9 9 9 9 9 9 9 8 9 9 10 9 8 5 7 8 8 8 9 10
8 9 9 8 9 10 8 1 5 2 4 9 10 11 12 13 13 7 10 10 11 12 11 11 10 9 7 7 7 6 5 4 4 4 3 3 3 3 3 2 2 3 4 5 5 5 5 5 5 5 4 5 5 5 5 6 5 6 7 8 8 7 7 7 8 8 8 9 10 10 9 10 10 11 10 10 10 10 9 9 9 9 9 8 9 9 10 10 11 11 9 6 7 8 8 10 10
8 8 8 8 9 9 6 6 5 3 2 10 12 15 14 13 14 10 12 13 10 11 11 10 10 10 7 7 7 7 6 6 6 5 4 4 4 3 3 3 3 4 4 5 4 4 4 4 4 4 4 5 5 6 6 7 7 7 8 9 9 9 8 8 9 9 9 10 10 10 10 10 10 10 10 10 9 10 10 9 9 8 9 8 8 10 10 11 10 11 11 9 6 7 7 8 11
8 7 8 10 6 4 6 6 1 3 5 4 5 9 12 14 14 12 12 11 8 5 4 4 6 9 8 8 7 7 8 8 8 7 7 6 5 5 3 3 3 3 4 4 4 4 4 4 4 5 6 6 6 7 8 10 10 11 11 10 10 10 9 9 10 10 10 10 11 10 10 10 10 10 11 10 9 10 10 9 8 8 9 9 8 9 10 10 10 10 10 11 8 7 7 7 9
9 11 9 8 9 7 8 3 3 2 8 7 10 11 13 14 15 9 7 4 4 4 3 4 4 3 4 4 5 7 9 9 8 8 7 7 6 5 5 4 4 4 4 4 3 3 4 5 6 6 7 7 7 8 9 10 10 11 11 11 11 11 10 9 9 9 9 9 9 10 10 10 10 10 10 10 10 10 10 9 9 9 9 9 8 9 9 9 9 9 10 9 10 8 7 7 7
9 12 12 12 10 11 9 6 5 8 9 9 8 6 9 9 11 13 9 5 8 7 9 10 9 9 7 7 8 6 6 6 8 8 8 8 7 6 6 5 4 4 4 3 3 4 5 6 6 7 7 7 8 9 8 7 7 8 8 8 8 8 8 7 8 8 8 8 9 8 10 10 10 10 10 10 10 9 10 10 9 9 9 8 8 8 8 8 9 10 9 8 9 10 7 7 7
9 6 11 13 12 11 9 10 1 5 7 2 4 8 8 1 5 7 8 9 10 9 11 11 11 11 10 9 9 9 9 7 7 8 8 8 7 7 7 5 5 5 4 3 3 4 5 6 6 6 6 6 5 5 5 5 5 5 7 8 8 8 10 8 8 8 8 7 7 9 8 9 10 10 10 9 9 9 9 9 9 9 8 8 8 7 8 8 7 8 7 8 8 7 8 7 8
9 4 0 4 7 9 9 9 9 9 6 4 6 6 10 10 9 3 8 9 10 11 12 13 12 12 12 11 10 10 10 10 8 9 9 8 8 8 8 6 5 5 4 3 4 4 5 6 6 6 6 6 4 4 4 4 6 7 9 10 9 9 9 10 9 8 8 7 8 9 8 8 9 9 9 9 9 9 9 9 9 8 8 8 7 7 7 7 6 7 8 8 7 7 8 7 6
2 2 2 2 3 6 6 7 8 7 5 8 7 9 6 9 9 6 9 7 11 13 14 14 14 13 13 12 11 11 11 11 10 9 9 9 8 7 7 6 6 5 4 4 4 4 4 5 5 6 6 6 5 6 6 7 7 8 8 9 10 8 9 8 8 7 7 7 9 8 8 8 8 9 9 9 9 9 8 8 8 8 8 7 6 6 6 7 8 8 8 8 7 6 6 6 5
3 4 6 5 2 1 5 5 6 7 7 12 9 10 8 12 6 7 6 8 13 13 14 15 15 15 13 12 12 12 10 10 9 9 9 8 7 6 6 7 6 4 4 4 4 4 4 5 6 7 7 6 6 7 8 8 8 7 8 9 11 10 8 8 7 8 7 7 8 8 7 7 6 7 7 8 8 8 8 8 7 8 7 7 6 6 6 6 7 6 7 7 7 7 6 6 6
9 6 5 4 3 3 3 5 5 4 12 13 11 13 11 9 4 9 7 7 9 8 7 9 13 13 13 12 13 12 11 10 9 9 9 8 7 7 6 7 6 5 4 4 4 4 5 5 7 8 7 6 7 7 8 8 8 8 8 9 10 11 10 9 8 8 7 7 7 7 7 6 6 6 6 7 7 7 7 7 7 7 6 6 6 6 6 6 5 6 5 6 7 7 6 5 5
7 4 5 4 3 3 4 4 4 8 14 7 13 16 15 12 4 7 10 4 1 4 10 13 15 15 14 14 13 13 12 11 10 9 9 9 8 7 6 7 7 6 5 5 4 5 5 6 7 9 8 7 7 7 7 8 8 8 9 10 10 9 9 7 8 8 8 8 7 7 6 6 6 6 6 6 7 7 6 7 7 6 7 6 6 6 6 5 5 5 5 5 5 5 5 5 5
6 7 7 6 3 3 5 5 8 11 10 3 3 4 9 19 13 6 5 3 4 2 5 13 16 16 15 14 15 13 12 12 11 10 9 9 9 9 8 8 7 7 6 7 6 6 6 7 8 9 8 7 7 7 8 8 8 8 8 9 9 8 8 9 8 8 7 7 6 7 6 6 6 6 6 6 6 7 6 6 6 6 5 6 6 6 5 6 5 5 5 5 5 5 5 5 4
10 11 9 7 8 10 11 8 7 8 2 1 3 2 9 5 8 19 18 5 5 5 5 7 14 16 16 16 15 13 12 12 11 10 10 10 9 9 9 9 8 7 8 7 7 7 6 7 8 9 9 8 8 8 8 9 9 8 8 8 8 8 8 7 7 7 7 7 6 7 6 6 6 5 5 5 4 5 5 6 5 5 5 5 5 5 5 5 5 4 4 5 4 4 4 5 3
13 11 11 9 8 4 10 9 11 6 2 3 2 5 5 6 3 6 6 5 4 5 3 2 10 12 13 14 13 13 13 12 10 11 11 11 11 11 9 9 9 8 9 8 7 7 7 8 8 10 10 9 8 8 8 9 8 8 8 7 7 7 7 7 7 6 7 7 6 7 6 6 5 5 5 4 5 5 5 5 5 4 4 4 4 4 4 4 4 3 3 3 3 3 4 4 3
9 9 7 10 12 6 11 1 3 2 0 3 5 6 3 5 5 4 3 5 3 5 4 5 11 12 13 13 14 13 13 12 11 11 11 12 11 11 9 9 9 8 9 7 8 7 7 8 9 10 10 10 9 8 8 8 8 7 7 8 7 7 7 7 7 6 6 7 7 7 7 6 5 5 4 3 3 3 3 3 3 3 3 3 3 3 4 3 3 3 3 3 3 3 3 3 3
8 8 11 10 5 4 5 2 2 0 3 11 6 6 8 5 5 6 6 5 6 5 7 8 11 14 14 13 13 14 13 13 12 12 12 13 11 10 10 10 9 9 9 9 9 8 9 9 10 11 10 9 9 9 8 8 8 8 7 7 7 7 7 8 7 8 8 7 6 6 6 5 5 4 4 3 3 3 3 3 3 3 4 3 4 4 4 4 4 3 3 3 3 4 4 3 3
8 7 9 6 4 5 1 8 2 4 10 8 8 11 8 7 8 8 8 7 8 9 9 10 11 13 15 13 14 14 14 13 12 11 11 12 11 12 10 10 10 10 10 9 9 8 8 8 10 11 10 11 9 9 8 8 9 8 8 7 7 7 8 8 8 8 7 6 6 5 5 5 5 4 3 2 3 3 3 3 3 2 3 3 3 4 4 4 4 3 3 2 2 4 4 3 2
3 2 3 9 7 7 9 2 9 9 11 8 8 12 12 12 9 6 10 11 11 12 11 11 13 14 14 14 15 14 13 12 13 13 13 13 12 12 12 12 11 11 10 9 9 7 8 8 9 9 11 10 10 8 8 7 7 6 6 7 8 8 7 7 7 7 6 6 6 5 6 5 5 4 3 3 3 2 2 2 2 2 2 2 3 3 4 4 4 3 3 2 2 3 4 3 2
1 1 4 3 3 7 8 10 3 3 11 6 10 8 11 11 11 12 14 14 13 13 13 14 15 16 14 14 15 17 16 14 14 14 13 13 13 13 13 13 12 12 11 9 9 7 9 9 10 9 9 9 9 9 9 9 7 6 7 7 7 7 7 7 7 7 6 6 6 6 5 5 5 4 3 3 3 3 2 2 2 2 2 2 3 2 3 3 3 2 3 2 3 3 3 3 3
8 6 9 4 4 3 5 4 8 6 8 9 10 10 5 7 12 13 14 15 14 16 15 13 13 15 14 16 17 17 16 15 15 14 14 14 14 13 12 11 10 9 8 8 8 9 9 8 9 10 11 10 10 9 9 8 7 7 8 8 8 7 7 6 7 7 7 6 6 5 5 5 4 4 3 3 3 2 2 2 1 2 2 2 2 2 2 3 2 2 3 2 3 3 4 3 3
14 14 16 16 11 8 7 11 6 6 4 7 5 14 4 3 3 5 11 10 11 13 14 13 14 14 15 14 16 16 15 15 15 14 14 13 13 13 11 10 9 10 10 10 9 9 9 9 9 10 9 9 10 9 8 9 7 8 8 8 8 7 6 6 7 6 7 6 5 5 5 4 5 4 3 3 2 2 1 1 0 0 1 1 1 2 2 2 2 3 3 2 2 4 4 4 4
Wind_Direction
284 281 305 287 275 271 283 204 236 126 236 109 124 212 79 18 82 190 93 212 126 64 28 11 21 340 351 19 359 41 41 23 22 15 60 69 88 62 76 61 70 160 151 157 145 150 163 156 165 159 162 158 157 150 147 144 141 139 139 138 138 135 132 129 127 126 124 113 113 115 112 108 103 98 89 83 79 80 89 102 101 95 89 81 80 80 78 70 68 64 60 55 49 42 37 35 35
301 306 275 274 265 280 190 104 279 142 102 116 70 67 97 113 229 51 63 48 40 38 17 9 3 354 294 300 351 232 62 46 38 68 96 76 97 60 64 48 45 133 150 150 153 162 163 154 158 161 163 159 158 151 150 150 147 143 143 141 140 139 137 137 135 133 126 123 118 118 118 112 109 103 98 91 86 85 91 101 98 93 85 84 85 81 74 69 68 63 60 53 48 42 35 32 31
308 304 296 229 253 248 312 218 254 140 166 115 95 68 146 179 82 77 53 51 42 28 24 39 346 261 272 209 209 348 90 57 52 54 78 70 188 28 29 37 32 72 144 151 148 162 165 151 150 156 161 162 157 153 155 153 150 148 145 144 141 138 136 135 138 136 133 129 130 124 123 120 115 107 103 97 89 87 90 96 98 96 89 87 81 74 71 72 66 61 54 48 45 40 33 29 29
283 274 295 286 220 217 229 215 271 238 61 84 115 120 61 74 84 64 63 60 50 339 352 112 216 59 312 84 54 235 81 75 40 359 67 42 22 347 17 42 13 240 116 163 155 157 172 133 150 161 164 163 160 156 157 155 152 152 150 147 142 141 135 134 138 136 134 134 133 131 129 126 117 111 104 96 96 93 94 99 100 94 90 85 80 76 74 75 66 55 49 46 40 37 30 28 29
268 265 269 273 286 198 292 326 344 280 119 331 108 124 122 76 86 74 79 76 70 6 335 36 191 65 39 27 348 5 13 109 49 41 17 73 6 3 28 51 301 145 145 160 158 154 116 126 131 163 165 163 160 160 158 157 155 158 154 150 147 144 142 138 141 141 141 139 138 133 136 129 125 118 111 98 94 96 100 100 101 99 96 90 74 73 73 74 67 55 44 44 40 35 30 28 29
264 265 230 265 292 3 247 198 200 65 40 359 126 107 92 71 83 69 101 93 77 39 13 320 12 102 136 50 23 40 1 14 352 55 345 17 3 358 30 351 8 131 151 153 152 167 125 106 116 153 166 168 159 164 156 153 156 157 155 152 151 147 148 144 151 150 146 148 143 148 142 138 130 117 106 102 96 94 96 103 104 106 99 73 73 75 73 72 71 50 48 43 41 38 33 30 30
332 288 201 204 158 229 261 215 94 87 71 1 91 119 95 89 78 169 127 135 121 96 14 13 347 226 161 121 88 62 42 7 13 12 6 352 3 11 5 12 54 91 132 153 153 121 115 108 106 151 162 165 169 163 159 159 161 164 155 151 153 150 147 149 153 152 152 154 153 150 158 145 127 116 105 106 102 104 109 107 104 87 78 75 62 67 76 72 54 55 53 47 43 40 37 33 33
252 280 100 256 138 242 254 81 75 18 100 32 61 89 85 90 103 186 115 264 101 181 90 73 262 306 75 236 102 81 53 54 64 32 21 23 15 11 19 4 53 103 111 114 159 90 102 98 90 83 165 167 163 175 164 163 166 165 156 155 156 153 155 148 149 149 159 154 159 156 159 158 121 139 124 120 120 114 119 119 107 94 82 72 68 65 61 59 58 57 50 46 44 40 37 37 36
241 260 128 265 180 283 163 112 90 63 109 117 105 60 70 60 33 303 118 75 124 80 51 32 27 279 109 126 83 101 54 43 73 40 28 29 32 20 27 21 28 43 59 77 152 124 130 100 78 77 96 167 168 173 173 171 165 174 166 161 157 152 157 149 145 152 149 169 156 158 152 151 141 145 146 136 134 130 130 119 109 94 81 68 65 63 64 61 64 58 50 45 42 38 36 37 38
226 271 199 273 9 189 163 132 167 117 122 113 116 118 104 112 106 322 100 136 70 109 60 357 325 28 133 129 129 75 49 35 38 42 26 30 27 35 39 32 31 24 56 70 103 120 86 95 69 35 49 123 158 174 181 173 173 160 185 166 162 159 155 151 144 147 149 165 155 143 134 124 157 148 126 160 96 126 122 120 102 85 81 77 68 63 60 60 61 51 45 42 39 36 35 35 33
235 169 348 250 211 162 209 152 121 145 146 142 136 105 99 102 257 139 9 70 123 36 104 346 205 72 229 88 56 100 72 47 33 26 17 22 39 24 48 50 35 17 46 27 63 316 129 142 94 49 18 40 120 166 168 189 183 175 179 173 169 164 160 150 143 142 148 144 140 165 174 154 155 153 146 146 112 46 122 128 106 90 80 74 64 61 62 69 60 52 47 42 36 35 35 36 32
250 201 188 248 228 217 176 154 143 133 141 165 143 136 107 137 195 214 156 175 133 147 64 341 49 344 246 158 139 128 55 36 27 18 10 16 42 43 29 59 48 47 37 43 23 65 59 140 177 137 73 41 43 88 184 176 180 193 190 171 167 162 161 148 139 138 134 144 132 117 123 16 83 143 140 149 120 142 127 140 116 95 82 66 61 69 79 75 64 56 52 46 38 34 34 33 32
303 23 227 255 5 255 66 145 155 145 161 196 150 113 131 194 250 18 58 120 118 222 93 31 358 291 249 183 110 129 51 21 15 8 12 16 43 48 50 58 54 51 55 76 102 95 354 330 189 180 176 110 105 54 85 176 188 185 205 182 170 164 157 157 148 132 130 127 112 103 94 89 77 96 117 134 133 132 135 94 85 104 85 83 83 89 87 76 71 67 60 51 45 39 34 34 34
300 357 297 249 39 274 196 137 138 183 194 128 87 122 152 257 48 357 328 286 109 36 45 8 302 6 276 185 162 139 32 11 359 360 355 34 56 68 67 66 64 62 58 55 51 41 121 332 294 245 152 191 216 161 134 130 181 172 174 215 209 143 150 157 154 137 120 111 113 108 112 110 110 108 114 137 135 132 95 72 51 93 95 100 102 101 99 94 88 83 72 62 55 48 43 39 37
326 340 266 303 166 209 112 204 185 205 149 139 98 149 158 90 354 11 4 329 80 32 78 71 353 286 63 304 84 17 349 349 345 342 333 38 83 79 79 94 89 70 60 60 62 35 22 359 310 297 284 238 214 221 222 167 170 173 158 179 207 149 151 155 147 135 130 124 114 109 119 131 122 129 122 132 124 115 99 143 80 84 108 115 111 109 107 106 104 97 91 85 73 61 52 48 47
342 283 249 205 190 218 159 243 184 224 133 143 107 109 170 112 38 299 62 351 28 102 287 101 56 355 8 20 29 345 341 342 339 326 310 137 159 124 105 87 85 71 55 43 50 59 32 7 2 319 274 275 239 228 223 209 159 155 156 156 167 198 222 183 151 148 141 140 136 140 137 133 140 142 143 136 142 143 160 208 128 128 142 125 121 117 115 115 114 112 108 104 93 82 73 71 58
298 272 218 210 192 217 141 210 171 221 115 113 134 159 211 155 125 38 27 275 271 126 78 37 48 29 51 40 8 351 353 350 346 357 24 18 215 139 94 63 67 82 53 47 34 24 30 32 15 349 327 289 279 262 238 242 144 157 162 153 157 169 187 211 243 157 154 136 144 143 157 213 206 163 176 158 153 164 167 141 141 139 154 133 133 129 126 127 127 126 127 111 107 103 102 92 81
258 229 243 219 101 207 136 211 163 56 144 129 148 76 266 180 162 143 226 221 237 219 112 96 86 74 73 78 34 19 12 14 15 30 40 46 12 37 48 45 30 37 38 31 34 19 9 16 23 344 333 311 280 272 267 247 161 187 223 201 195 178 166 181 209 204 191 186 154 162 221 219 221 210 192 144 175 147 144 157 145 134 133 138 141 138 136 140 141 138 127 127 115 127 171 155 113
278 275 252 349 94 64 7 69 81 222 123 118 100 70 320 22 347 112 266 184 230 196 132 143 104 105 95 66 43 31 25 35 29 36 45 41 34 36 36 27 30 21 28 9 21 16 4 349 358 349 326 338 311 277 256 247 244 234 221 219 203 196 189 189 213 223 224 217 192 217 216 219 220 233 162 106 102 117 148 162 169 139 146 148 150 145 147 147 152 133 129 129 144 176 204 77 75
66 293 244 95 57 95 71 65 92 52 87 147 179 102 281 13 288 56 256 289 246 247 155 173 141 103 63 49 38 23 29 36 37 34 41 38 34 28 30 23 23 18 16 3 8 5 1 348 342 333 336 250 300 250 249 232 231 226 233 220 215 209 208 207 216 221 227 214 212 219 220 219 223 200 97 111 123 158 145 154 163 168 156 159 151 146 139 156 137 113 125 152 180 195 53 58 66
79 259 340 90 106 142 121 86 79 89 357 49 318 75 271 224 194 283 305 280 237 113 45 29 52 58 53 44 31 17 26 35 39 35 36 36 33 31 25 22 12 8 13 345 9 3 4 348 338 326 324 239 210 226 241 225 213 221 216 223 226 207 209 226 244 247 237 230 238 240 250 248 241 231 174 165 207 206 162 176 177 184 177 174 166 188 176 154 189 148 157 217 30 59 49 45 47
288 30 47 84 128 175 102 91 67 80 33 287 133 248 272 86 250 251 266 260 359 63 41 42 47 49 47 31 28 23 30 34 32 30 31 31 22 22 16 12 17 16 9 10 358 359 1 353 340 321 298 248 214 195 227 209 289 198 188 202 223 254 183 191 256 339 275 263 266 300 271 242 253 251 268 276 252 222 215 207 198 210 194 195 171 230 210 179 228 178 176 341 49 46 62 50 42
262 132 95 19 26 348 118 138 95 291 221 229 232 256 347 254 270 247 256 301 82 60 68 71 68 56 63 45 30 40 35 33 29 28 20 25 21 19 13 10 10 11 6 8 360 360 359 353 338 325 297 267 216 209 201 221 217 199 173 41 288 126 13 61 39 1 349 311 336 357 329 297 284 294 326 249 234 236 213 235 210 196 183 171 209 236 26 299 280 328 278 2 61 78 72 76 62
290 69 129 126 5 289 107 127 137 224 246 256 303 17 264 251 257 110 227 89 91 83 80 85 80 89 89 75 58 54 44 32 29 23 21 25 19 20 12 14 12 15 12 9 8 2 358 352 332 342 229 243 186 174 193 187 193 140 83 146 198 36 31 36 47 27 41 22 29 46 19 350 335 320 300 323 318 284 217 164 51 44 88 315 265 218 187 240 257 332 354 53 91 96 88 47 81
261 221 143 102 271 249 195 202 206 227 241 261 248 257 248 236 265 155 183 112 118 117 117 97 110 108 84 69 62 59 58 56 41 40 33 23 19 25 27 20 13 21 13 9 356 357 352 340 347 21 92 229 171 161 176 159 148 71 46 36 51 52 56 56 50 44 40 33 38 34 24 32 328 231 266 5 359 330 44 54 33 7 28 78 137 268 316 316 0 20 9 3 348 9 74 102 92
357 53 184 194 238 232 228 234 233 227 233 212 228 246 249 211 55 245 127 126 122 125 115 131 133 114 92 69 57 46 45 43 35 30 32 37 28 25 29 19 14 21 10 359 353 349 343 346 11 347 31 176 120 78 55 48 50 63 61 54 57 56 58 55 53 55 45 35 30 29 34 34 40 30 44 52 51 48 48 36 50 43 50 42 37 53 42 26 24 32 22 4 347 1 21 52 332
331 331 272 264 267 244 230 245 250 194 236 192 230 258 209 138 204 200 132 134 137 137 127 129 155 104 81 72 63 43 38 29 21 13 27 34 35 31 25 20 19 13 4 0 353 347 345 5 25 21 28 30 52 60 55 65 66 65 62 56 53 56 50 50 53 48 43 38 27 27 28 29 37 47 56 57 62 55 50 47 43 39 43 37 45 69 65 65 61 51 43 39 23 3 9 25 6
305 313 283 252 242 231 220 228 252 210 231 210 231 256 100 156 183 271 141 142 153 151 139 137 139 99 79 65 53 47 44 38 24 22 22 23 26 20 25 15 7 6 4 355 346 337 11 27 38 38 38 52 62 60 64 69 62 62 64 60 51 49 48 50 52 54 47 39 35 36 31 27 25 39 48 48 48 50 53 50 45 50 50 38 37 53 70 60 74 72 62 64 70 19 327 48 19
344 300 292 282 238 243 198 227 188 207 218 173 206 244 234 184 224 127 133 146 159 162 153 154 134 119 104 83 89 68 56 44 48 43 33 32 35 26 31 23 10 0 359 349 345 356 23 29 48 37 40 59 66 69 66 68 68 68 71 65 57 51 49 52 54 49 47 45 39 38 40 35 26 36 45 51 52 54 54 52 47 42 42 46 48 54 64 55 65 80 81 73 50 48 36 23 355
291 242 275 290 260 244 160 125 155 209 112 186 192 246 242 198 155 136 140 160 167 171 183 175 165 157 149 157 156 122 87 93 64 54 37 38 40 35 31 25 23 11 351 352 0 17 26 30 36 40 60 60 63 70 71 70 64 63 64 66 57 54 48 50 51 48 39 37 42 37 36 36 37 39 46 50 47 50 52 50 47 45 42 43 46 49 56 62 71 65 75 79 76 84 111 94 341
259 142 231 267 273 251 145 173 153 201 120 185 224 250 320 131 125 135 156 164 175 187 181 178 176 169 167 170 165 145 122 74 69 64 54 48 41 46 35 35 26 17 5 3 8 4 39 49 42 58 63 74 68 71 73 75 73 71 71 68 61 60 59 57 51 47 43 40 42 39 36 33 30 27 33 49 54 56 57 53 46 39 34 27 32 30 44 64 56 47 32 81 89 66 80 77 29
231 264 243 203 247 134 146 146 186 232 152 203 219 255 265 150 153 151 155 176 188 205 180 180 179 179 168 165 166 157 123 116 92 67 53 49 42 36 38 31 28 20 13 359 355 16 54 56 57 62 62 71 69 72 76 76 75 74 71 66 68 65 66 62 55 53 48 47 44 42 32 39 41 39 38 44 53 48 49 49 41 33 32 40 42 32 25 36 37 39 33 17 55 46 28 24 6
215 236 268 265 223 248 185 154 154 29 133 183 211 274 356 162 143 148 161 177 194 211 192 189 179 175 179 172 169 152 147 134 104 71 49 39 46 33 44 39 27 13 12 3 358 30 56 56 59 67 67 75 77 74 72 71 72 71 67 65 65 64 65 62 55 55 54 50 45 40 30 29 38 40 41 43 52 52 53 52 43 41 35 36 35 32 31 24 36 49 43 41 40 43 35 17 358
235 202 260 265 255 247 257 116 177 151 214 209 208 247 260 104 157 152 162 185 194 212 208 193 185 181 175 168 175 173 168 148 115 68 48 39 44 34 51 42 28 20 18 16 21 40 55 61 62 64 71 70 75 81 79 78 76 76 72 67 64 63 61 58 52 48 49 45 41 37 32 33 32 36 40 49 58 55 54 54 50 40 38 42 45 45 40 33 34 42 53 43 35 30 25 10 357
278 192 238 254 230 236 269 259 131 207 179 255 236 232 259 196 158 169 168 187 197 209 206 197 192 183 178 185 177 172 164 160 106 72 48 49 42 49 55 46 41 20 25 41 55 56 74 79 84 83 83 82 83 88 89 87 85 79 77 73 66 63 58 53 50 53 47 43 40 36 34 35 31 33 38 43 54 57 55 53 48 37 36 38 37 36 41 37 42 43 41 47 55 42 15 7 349
289 292 287 291 281 244 248 231 98 254 239 243 244 254 250 250 169 167 168 180 200 207 192 191 193 186 183 183 181 172 174 143 92 70 53 50 44 43 57 48 43 33 40 59 66 62 70 73 78 79 78 82 86 86 82 84 80 79 80 75 68 62 60 57 52 53 49 45 39 39 37 37 34 32 34 41 48 50 52 49 49 42 39 40 39 36 30 25 17 26 44 31 34 40 26 5 354
308 292 275 269 272 270 265 152 100 114 268 256 261 261 263 262 245 180 173 175 197 204 200 200 198 194 190 188 183 179 171 150 109 103 83 70 71 60 65 57 74 67 63 74 71 62 59 72 81 78 68 84 103 103 95 92 93 90 79 77 80 73 71 69 64 58 54 49 43 44 42 41 36 34 33 38 41 46 48 46 44 42 43 40 39 36 30 27 23 17 17 53 34 36 25 8 358
269 275 268 264 252 265 280 213 122 140 243 275 271 269 261 265 267 187 163 173 203 202 203 203 194 192 189 187 181 181 164 119 150 146 135 123 97 88 91 92 103 108 73 79 75 70 74 77 79 80 73 68 71 78 86 83 79 90 100 94 94 84 79 74 72 63 64 59 53 51 50 46 45 43 36 37 40 42 45 45 43 40 40 42 41 39 35 29 28 28 14 42 53 41 37 14 9
247 252 256 261 258 269 261 140 144 171 202 272 271 267 267 262 263 172 182 192 205 205 207 202 189 187 186 185 182 176 164 163 165 153 146 130 118 110 113 106 93 85 85 80 80 91 88 89 82 78 72 76 75 82 87 88 86 86 96 98 96 93 80 80 80 79 73 69 61 54 51 50 48 47 45 42 41 40 44 46 44 42 40 39 40 36 32 31 26 26 26 18 32 48 50 31 22
245 230 234 242 269 250 259 123 211 185 230 311 357 295 276 268 261 194 199 198 196 154 158 156 186 189 189 189 181 179 179 169 170 166 161 144 138 136 124 122 105 107 104 98 93 89 86 84 82 80 75 73 76 71 83 89 89 91 88 96 95 94 99 92 86 78 73 69 62 56 51 49 48 49 44 46 47 45 43 46 47 43 42 40 42 42 35 32 28 24 24 23 16 37 29 38 34
221 233 244 249 242 235 242 299 133 166 243 249 274 278 270 256 245 203 180 148 133 166 177 193 202 207 180 157 169 186 179 173 165 157 153 152 150 145 145 131 127 115 98 86 75 89 89 90 88 87 84 85 89 96 97 101 103 98 99 102 104 104 97 91 85 74 67 64 63 52 47 48 49 49 45 44 46 46 44 43 45 45 43 39 42 44 42 34 28 27 23 26 24 21 31 25 37
243 219 223 246 256 268 267 265 326 286 280 190 219 290 270 255 232 216 154 178 213 191 196 207 199 196 184 188 188 179 172 168 163 162 157 154 151 143 140 142 129 113 106 80 74 91 102 102 100 97 97 96 103 107 112 114 116 123 127 121 114 105 93 80 73 78 73 65 65 64 56 51 53 51 50 46 45 45 45 44 44 45 44 41 39 43 42 38 30 26 22 23 23 16 21 29 25
253 264 200 232 252 267 268 269 216 270 264 69 198 244 281 263 220 178 157 188 199 180 205 206 195 193 190 193 185 178 173 160 153 149 149 153 153 153 147 140 133 121 109 100 94 92 98 100 101 103 103 101 98 111 127 136 130 114 103 98 98 100 101 88 90 87 87 84 78 70 65 56 52 54 49 46 45 44 45 43 43 45 45 44 40 42 39 35 32 25 20 26 26 21 16 36 28
247 47 234 197 246 246 249 244 238 256 309 170 208 240 275 276 262 145 160 185 195 198 208 207 198 189 185 185 180 176 173 168 161 158 159 158 159 159 149 134 133 124 117 108 95 96 99 102 102 103 102 106 99 102 97 99 102 97 98 97 95 97 99 105 99 93 91 90 86 79 75 66 57 55 54 49 45 44 44 44 42 44 46 43 42 45 39 29 28 27 26 24 28 31 26 25 24
257 75 59 198 243 260 247 244 245 255 287 261 202 204 259 256 249 188 178 214 213 213 201 200 196 190 181 179 176 171 164 163 160 159 160 158 157 149 139 133 115 113 113 107 105 98 96 100 103 103 106 105 98 95 97 96 100 104 104 106 102 98 102 103 104 101 98 95 91 87 82 77 70 61 55 52 47 46 45 45 43 46 44 41 40 42 37 35 33 29 24 25 23 28 34 24 22
119 123 79 77 87 79 239 236 246 249 241 248 227 187 241 266 237 210 195 241 249 233 200 190 187 182 176 174 169 163 155 152 155 156 154 152 147 133 126 121 122 105 95 104 107 111 112 116 114 113 106 104 103 99 98 99 101 103 104 107 111 112 112 109 107 106 101 97 93 89 82 77 72 67 58 51 49 47 45 44 45 44 43 40 38 36 36 36 34 33 31 30 23 25 29 30 28
129 142 131 115 145 191 185 235 248 263 246 243 220 211 212 278 220 214 201 220 230 237 164 161 170 171 170 170 163 161 157 153 153 152 150 143 134 130 130 134 125 117 118 131 125 127 127 125 125 117 111 109 108 104 105 102 101 105 109 112 112 113 113 115 115 110 107 101 95 91 84 79 72 68 64 56 49 46 49 46 46 44 41 40 37 34 29 27 29 28 27 32 32 25 19 19 25
163 161 182 176 207 189 218 221 213 246 260 240 208 221 202 237 220 211 234 80 168 180 159 163 170 173 171 168 164 161 157 156 155 153 153 146 137 137 144 137 138 136 142 141 140 134 137 134 131 123 117 114 109 106 105 103 105 105 106 109 109 111 115 114 112 110 106 103 100 97 93 87 78 72 64 58 45 39 45 44 41 44 43 35 34 32 27 18 21 29 27 25 24 22 19 11 22
208 188 189 192 226 151 227 183 218 215 252 95 58 131 214 234 240 256 225 143 121 71 155 169 173 171 167 164 162 158 158 156 160 160 156 157 157 155 157 151 146 154 155 153 150 146 143 142 139 130 122 119 112 110 108 109 107 105 107 106 104 104 105 108 107 107 106 101 96 95 93 87 78 67 58 58 45 40 43 42 40 39 37 34 29 26 21 17 10 26 26 19 21 19 18 2 23
190 197 184 193 230 233 251 238 237 254 138 15 104 208 252 299 255 231 245 96 86 91 45 162 168 168 164 161 159 156 158 161 162 161 162 162 162 162 162 156 159 159 159 157 154 152 147 143 141 131 124 122 118 115 114 109 102 103 103 104 105 106 107 107 102 101 98 96 93 90 88 87 83 78 70 61 48 48 51 47 47 44 38 33 27 21 18 16 4 16 25 15 11 18 4 357 19
201 197 193 205 209 230 252 237 236 237 269 98 228 139 236 168 203 50 58 82 95 74 69 112 153 154 152 152 152 152 156 161 161 166 168 165 165 165 163 161 162 163 162 161 160 157 150 144 140 134 129 127 126 121 116 111 107 104 103 104 107 111 109 105 99 96 96 96 94 96 91 88 88 82 74 67 56 53 56 54 45 43 36 29 23 18 6 16 4 359 22 16 7 16 351 0 357
196 201 221 231 228 241 252 346 324 1 13 202 182 223 239 213 96 111 115 136 123 129 121 146 153 149 148 152 160 162 163 163 166 167 167 169 167 164 162 162 163 164 164 164 166 158 153 145 141 140 136 133 129 125 119 116 112 108 107 108 107 105 103 105 102 99 93 91 94 93 93 92 95 98 93 90 79 69 56 61 64 47 36 26 18 18 7 6 355 347 9 9 3 5 339 348 351
170 176 214 208 24 258 277 140 141 163 291 255 158 241 242 296 208 146 168 150 158 152 149 164 158 158 156 165 167 166 167 168 170 171 171 169 166 166 165 165 165 166 168 172 169 164 156 149 147 142 138 134 133 129 125 120 115 114 111 111 113 113 112 107 106 103 100 100 100 99 100 103 104 99 101 92 76 65 54 40 45 44 33 24 15 16 9 360 344 343 10 348 4 354 338 335 348
114 213 208 68 34 5 252 258 208 218 255 266 162 219 230 180 252 132 152 188 178 179 169 168 168 168 168 172 173 172 172 172 168 168 169 170 168 167 166 168 169 170 171 170 166 162 154 154 153 145 145 142 139 135 130 126 125 122 123 121 116 112 109 109 112 114 113 112 112 116 122 112 98 100 101 96 86 77 72 48 43 38 36 21 11 10 357 347 339 342 348 336 11 342 328 330 329
256 234 55 159 209 221 216 239 252 247 245 263 220 218 234 212 213 147 186 191 189 185 173 170 178 181 179 173 175 171 166 164 169 174 174 176 174 172 171 169 168 171 170 167 163 157 154 155 153 152 148 146 141 136 132 130 129 130 133 129 125 120 120 119 119 119 120 121 117 111 109 114 117 108 101 93 88 82 67 55 54 30 27 12 10 3 350 343 331 335 336 336 17 347 329 321 325
318 238 255 250 335 233 197 204 278 257 257 249 263 185 245 196 221 178 190 194 187 172 174 192 186 183 180 174 174 173 174 175 174 177 179 176 173 172 171 169 169 169 167 166 161 160 161 156 154 152 144 142 140 139 141 141 142 140 135 131 129 128 126 124 127 129 124 120 117 116 115 110 103 100 98 94 87 75 60 47 36 31 8 4 4 351 338 328 315 345 334 351 349 331 321 315 335
185 212 219 173 219 22 334 275 221 223 249 247 272 260 233 209 198 200 195 190 179 173 185 186 185 185 182 176 175 178 177 174 177 179 178 174 170 168 167 165 161 159 162 160 164 167 164 159 161 157 153 151 150 148 147 145 144 145 143 143 139 135 130 130 132 128 122 119 116 114 109 108 109 99 101 99 89 79 62 53 34 17 16 344 355 338 328 326 318 338 331 350 323 325 328 323 333
190 189 201 194 180 190 210 246 191 235 223 249 252 261 279 85 40 191 198 189 172 180 174 175 179 177 179 179 183 179 175 180 178 177 174 167 163 161 159 156 157 161 166 168 167 169 169 169 167 160 157 159 156 155 153 149 149 151 154 147 144 139 139 139 137 131 123 123 121 113 117 118 109 103 97 90 98 92 75 52 24 353 344 330 322 314 311 320 328 325 329 335 321 329 324 323 329